Location: Caltech
(34.1382°N, 118.1253°W)
Time: 05:00:07
(UTC-07:00)

Saudisat 1A - Visible Passes

Search period start: 24 October 2014 00:00
Search period end: 02 November 2014 23:00
Orbit: 598 x 608 km, 64.6° (Epoch: 23 October)

Date Brightness Start Highest point End Pass type
(mag) Time Alt. Az. Time Alt. Az. Time Alt. Az.
26 Oct 11.2 05:59:59 10° SE 06:02:21 14° ESE 06:04:44 10° ENE visible
27 Oct 10.2 06:10:26 10° S 06:14:12 29° ESE 06:18:01 10° NE visible
28 Oct 8.6 06:21:51 10° SSW 06:26:09 61° ESE 06:30:30 10° NE visible
29 Oct 8.0 06:33:52 10° SW 06:38:12 64° WNW 06:42:34 10° NNE visible
30 Oct 10.6 05:07:48 10° SSE 05:11:01 20° ESE 05:14:16 10° ENE visible
31 Oct 9.2 05:18:47 10° S 05:22:54 41° ESE 05:27:02 10° NE visible
01 Nov 7.9 05:32:40 29° SSW 05:34:52 87° ESE 05:39:17 10° NNE visible
02 Nov 11.1 03:09:17 12° E 03:09:17 12° E 03:10:06 10° ENE visible
02 Nov 8.3 04:46:10 41° W 04:46:56 45° WNW 04:51:10 10° NNE visible
